XNO87M EGGD-LSZH

Flight info

Callsign XNO87M
Flight time 1h 41m
Altitude 35000
Route YORQI DCT NUCHU L607 ALHAD UN859 VAPID L18 MID UL612 VEULE DCT TEPRI DCT POGZI DCT GELTA DCT MANAG DCT PEVIT DCT BLM
Aircraft A321/M-SDE1E2E3FGHIRWY/LB1

Departure

Time 2026-05-05 18:25
Airport Bristol Airport (EGGD)

Arrival

Time 2026-05-05 20:07
Airport Zürich Airport (LSZH)
Time Latitude Longitude Altitude Speed Heading
2026-05-05 17:58 51.38517 -2.71141 616 ft 0 kts 356°
2026-05-05 18:15 51.38495 -2.71139 616 ft 4 kts 356°
2026-05-05 18:15 51.38470 -2.71134 629 ft 4 kts 324°
2026-05-05 18:16 51.38459 -2.71104 625 ft 3 kts 267°
2026-05-05 18:16 51.38460 -2.71081 624 ft 0 kts 266°
2026-05-05 18:19 51.38459 -2.71096 627 ft 4 kts 266°
2026-05-05 18:19 51.38457 -2.71179 618 ft 11 kts 267°
2026-05-05 18:19 51.38453 -2.71280 621 ft 16 kts 266°
2026-05-05 18:20 51.38444 -2.71503 614 ft 23 kts 266°
2026-05-05 18:20 51.38435 -2.71775 612 ft 23 kts 266°
2026-05-05 18:20 51.38432 -2.72026 605 ft 23 kts 269°
2026-05-05 18:20 51.38423 -2.72275 609 ft 19 kts 265°
2026-05-05 18:21 51.38416 -2.72465 612 ft 17 kts 267°
2026-05-05 18:21 51.38408 -2.72661 620 ft 19 kts 266°
2026-05-05 18:21 51.38399 -2.72896 605 ft 23 kts 266°
2026-05-05 18:21 51.38390 -2.73119 606 ft 14 kts 266°
2026-05-05 18:22 51.38388 -2.73150 608 ft 0 kts 266°
2026-05-05 18:22 51.38388 -2.73153 608 ft 2 kts 266°
2026-05-05 18:22 51.38383 -2.73225 610 ft 11 kts 262°
2026-05-05 18:22 51.38342 -2.73321 627 ft 9 kts 212°
2026-05-05 18:23 51.38293 -2.73340 618 ft 6 kts 182°
2026-05-05 18:23 51.38246 -2.73320 632 ft 9 kts 150°
2026-05-05 18:23 51.38220 -2.73248 632 ft 6 kts 99°
2026-05-05 18:23 51.38219 -2.73183 632 ft 5 kts 88°
2026-05-05 18:24 51.38219 -2.73169 632 ft 0 kts 86°
2026-05-05 18:24 51.38220 -2.73135 630 ft 23 kts 87°
2026-05-05 18:25 51.38248 -2.72438 629 ft 99 kts 86°
2026-05-05 18:25 51.38283 -2.71549 604 ft 142 kts 85°
2026-05-05 18:25 51.38388 -2.69216 1315 ft 157 kts 82°
2026-05-05 18:25 51.38451 -2.67486 2127 ft 154 kts 82°
2026-05-05 18:26 51.38500 -2.65715 2605 ft 167 kts 82°
2026-05-05 18:26 51.38584 -2.63756 2864 ft 186 kts 81°
2026-05-05 18:26 51.38686 -2.61592 3121 ft 202 kts 80°
2026-05-05 18:26 51.38791 -2.59311 3419 ft 215 kts 76°
2026-05-05 18:27 51.38917 -2.56774 3621 ft 236 kts 77°
2026-05-05 18:27 51.39671 -2.54420 3923 ft 246 kts 39°
2026-05-05 18:27 51.41106 -2.52888 4591 ft 251 kts 28°
2026-05-05 18:27 51.42639 -2.51575 5279 ft 256 kts 26°
2026-05-05 18:28 51.45846 -2.48883 5981 ft 261 kts 28°
2026-05-05 18:28 51.47415 -2.47419 5998 ft 262 kts 30°
2026-05-05 18:28 51.48979 -2.45894 6021 ft 264 kts 30°
2026-05-05 18:29 51.50510 -2.44257 6734 ft 266 kts 40°
2026-05-05 18:29 51.51620 -2.41859 7386 ft 273 kts 64°
2026-05-05 18:29 51.51684 -2.41625 7434 ft 274 kts 67°
2026-05-05 18:29 51.51971 -2.39935 7817 ft 278 kts 83°
2026-05-05 18:30 51.51856 -2.36812 8450 ft 284 kts 96°
2026-05-05 18:30 51.51604 -2.33635 9123 ft 289 kts 96°
2026-05-05 18:30 51.51364 -2.30414 9809 ft 293 kts 95°
2026-05-05 18:30 51.51131 -2.27109 10228 ft 306 kts 95°
2026-05-05 18:31 51.50890 -2.23595 10364 ft 329 kts 95°
2026-05-05 18:31 51.50631 -2.19826 10504 ft 349 kts 95°
2026-05-05 18:31 51.50357 -2.15901 10960 ft 357 kts 95°
2026-05-05 18:31 51.50081 -2.11958 11517 ft 362 kts 95°
2026-05-05 18:32 51.49794 -2.07872 12143 ft 366 kts 96°
2026-05-05 18:32 51.49505 -2.03803 12800 ft 368 kts 96°
2026-05-05 18:32 51.49216 -1.99741 13407 ft 372 kts 96°
2026-05-05 18:32 51.48918 -1.95597 13982 ft 376 kts 96°
2026-05-05 18:33 51.48614 -1.91417 14574 ft 378 kts 96°
2026-05-05 18:33 51.48311 -1.87219 15197 ft 379 kts 96°
2026-05-05 18:33 51.48010 -1.82993 15793 ft 381 kts 96°
2026-05-05 18:33 51.47706 -1.78759 16412 ft 383 kts 96°
2026-05-05 18:34 51.47396 -1.74509 17011 ft 385 kts 96°
2026-05-05 18:34 51.47082 -1.70220 17591 ft 388 kts 96°
2026-05-05 18:34 51.46672 -1.65938 18175 ft 390 kts 102°
2026-05-05 18:34 51.46095 -1.61671 18676 ft 393 kts 102°
2026-05-05 18:35 51.45508 -1.57359 19129 ft 397 kts 102°
2026-05-05 18:35 51.44912 -1.53019 19561 ft 401 kts 102°
2026-05-05 18:35 51.44306 -1.48632 20019 ft 405 kts 102°
2026-05-05 18:35 51.43693 -1.44190 20431 ft 410 kts 103°
2026-05-05 18:36 51.43071 -1.39699 20903 ft 413 kts 102°
2026-05-05 18:36 51.42444 -1.35181 21381 ft 416 kts 103°
2026-05-05 18:36 51.41822 -1.30702 21819 ft 419 kts 102°
2026-05-05 18:36 51.41182 -1.26119 22256 ft 422 kts 104°
2026-05-05 18:37 51.40211 -1.21682 22653 ft 425 kts 116°
2026-05-05 18:37 51.38720 -1.17654 23045 ft 427 kts 128°
2026-05-05 18:37 51.36733 -1.14109 23435 ft 429 kts 139°
2026-05-05 18:37 51.34345 -1.11249 23776 ft 430 kts 151°
2026-05-05 18:38 51.31670 -1.09112 24136 ft 430 kts 156°
2026-05-05 18:38 51.28972 -1.07122 24526 ft 432 kts 154°
2026-05-05 18:38 51.26399 -1.04616 24894 ft 434 kts 144°
2026-05-05 18:38 51.24114 -1.01446 25277 ft 437 kts 135°
2026-05-05 18:39 51.22170 -0.97710 25656 ft 439 kts 128°
2026-05-05 18:39 51.20332 -0.93792 26036 ft 440 kts 128°
2026-05-05 18:39 51.18492 -0.89903 26460 ft 440 kts 128°
2026-05-05 18:39 51.16637 -0.86005 26835 ft 441 kts 128°
2026-05-05 18:40 51.14777 -0.82109 27220 ft 442 kts 128°
2026-05-05 18:40 51.12910 -0.78204 27567 ft 444 kts 128°
2026-05-05 18:40 51.11040 -0.74294 27910 ft 445 kts 128°
2026-05-05 18:40 51.09173 -0.70398 28247 ft 447 kts 128°
2026-05-05 18:41 51.07280 -0.66451 28593 ft 448 kts 129°
2026-05-05 18:41 51.05173 -0.62766 28918 ft 448 kts 139°
2026-05-05 18:41 51.02750 -0.59655 29247 ft 448 kts 147°
2026-05-05 18:41 51.00161 -0.56904 29578 ft 449 kts 147°
2026-05-05 18:42 50.97591 -0.54173 29967 ft 449 kts 147°
2026-05-05 18:42 50.95003 -0.51415 30380 ft 447 kts 147°
2026-05-05 18:42 50.92433 -0.48674 30761 ft 446 kts 147°
2026-05-05 18:42 50.89849 -0.45922 31126 ft 445 kts 147°
2026-05-05 18:43 50.87282 -0.43194 31484 ft 444 kts 147°
2026-05-05 18:43 50.84711 -0.40472 31852 ft 443 kts 147°
2026-05-05 18:43 50.82147 -0.37759 32215 ft 442 kts 147°
2026-05-05 18:43 50.79592 -0.35059 32568 ft 441 kts 147°
2026-05-05 18:44 50.77042 -0.32371 32908 ft 441 kts 147°
2026-05-05 18:44 50.74491 -0.29686 33244 ft 440 kts 147°
2026-05-05 18:44 50.71979 -0.27044 33563 ft 440 kts 147°
2026-05-05 18:44 50.69433 -0.24365 33901 ft 439 kts 147°
2026-05-05 18:45 50.66893 -0.21692 34175 ft 439 kts 147°
2026-05-05 18:45 50.64352 -0.19018 34413 ft 439 kts 147°
2026-05-05 18:45 50.61814 -0.16356 34646 ft 439 kts 147°
2026-05-05 18:45 50.59275 -0.13702 34855 ft 439 kts 147°
2026-05-05 18:46 50.54181 -0.08386 34930 ft 438 kts 147°
2026-05-05 18:46 50.49093 -0.03090 34932 ft 438 kts 147°
2026-05-05 18:47 50.44004 0.02187 34928 ft 436 kts 147°
2026-05-05 18:47 50.38959 0.07403 34925 ft 433 kts 147°
2026-05-05 18:48 50.33933 0.12603 34932 ft 432 kts 147°
2026-05-05 18:48 50.28912 0.17777 34932 ft 432 kts 147°
2026-05-05 18:49 50.23881 0.22942 34927 ft 432 kts 146°
2026-05-05 18:49 50.19484 0.29285 34930 ft 433 kts 128°
2026-05-05 18:50 50.16260 0.37228 34930 ft 433 kts 122°
2026-05-05 18:50 50.13112 0.45250 34926 ft 433 kts 122°
2026-05-05 18:51 50.09960 0.53229 34938 ft 432 kts 122°
2026-05-05 18:51 50.06815 0.61172 34932 ft 431 kts 122°
2026-05-05 18:52 50.03689 0.69050 34931 ft 430 kts 123°
2026-05-05 18:52 50.00555 0.76952 34929 ft 429 kts 123°
2026-05-05 18:53 49.97420 0.84832 34912 ft 429 kts 123°
2026-05-05 18:53 49.94269 0.92710 34906 ft 429 kts 122°
2026-05-05 18:54 49.91114 1.00580 34904 ft 429 kts 122°
2026-05-05 18:54 49.87957 1.08438 34907 ft 429 kts 122°
2026-05-05 18:55 49.84790 1.16288 34893 ft 429 kts 122°
2026-05-05 18:55 49.81616 1.24131 34896 ft 429 kts 122°
2026-05-05 18:56 49.78438 1.31965 34897 ft 429 kts 122°
2026-05-05 18:56 49.75254 1.39778 34884 ft 429 kts 123°
2026-05-05 18:57 49.72085 1.47526 34891 ft 429 kts 122°
2026-05-05 18:57 49.68892 1.55326 34886 ft 429 kts 123°
2026-05-05 18:58 49.65693 1.63111 34890 ft 429 kts 123°
2026-05-05 18:58 49.62500 1.70886 34893 ft 429 kts 123°
2026-05-05 18:59 49.59302 1.78661 34880 ft 429 kts 123°
2026-05-05 18:59 49.56090 1.86407 34877 ft 429 kts 123°
2026-05-05 19:00 49.52871 1.94143 34876 ft 429 kts 123°
2026-05-05 19:00 49.50193 2.00569 34887 ft 429 kts 123°
2026-05-05 19:01 49.46441 2.09552 34885 ft 428 kts 123°
2026-05-05 19:01 49.43217 2.17251 34882 ft 428 kts 123°
2026-05-05 19:02 49.40002 2.24909 34873 ft 428 kts 123°
2026-05-05 19:02 49.37306 2.31296 34871 ft 427 kts 123°
2026-05-05 19:03 49.34071 2.38938 34867 ft 427 kts 123°
2026-05-05 19:03 49.30832 2.46581 34861 ft 427 kts 123°
2026-05-05 19:04 49.27597 2.54203 34852 ft 427 kts 123°
2026-05-05 19:04 49.24354 2.61821 34848 ft 427 kts 123°
2026-05-05 19:05 49.21103 2.69428 34832 ft 427 kts 123°
2026-05-05 19:05 49.17847 2.77028 34829 ft 428 kts 123°
2026-05-05 19:06 49.14577 2.84638 34819 ft 428 kts 123°
2026-05-05 19:06 49.11307 2.92232 34816 ft 428 kts 123°
2026-05-05 19:07 49.08018 2.99821 34817 ft 429 kts 123°
2026-05-05 19:07 49.04726 3.07403 34816 ft 429 kts 123°
2026-05-05 19:08 49.01435 3.14990 34800 ft 430 kts 123°
2026-05-05 19:08 48.98133 3.22577 34795 ft 432 kts 124°
2026-05-05 19:09 48.94801 3.30212 34794 ft 433 kts 124°
2026-05-05 19:09 48.91473 3.37784 34796 ft 433 kts 124°
2026-05-05 19:10 48.88116 3.45402 34799 ft 434 kts 124°
2026-05-05 19:10 48.84751 3.53033 34791 ft 434 kts 124°
2026-05-05 19:11 48.81379 3.60655 34790 ft 435 kts 124°
2026-05-05 19:11 48.77998 3.68284 34795 ft 435 kts 124°
2026-05-05 19:12 48.74632 3.75851 34801 ft 436 kts 124°
2026-05-05 19:12 48.71235 3.83468 34810 ft 436 kts 124°
2026-05-05 19:13 48.67839 3.91064 34812 ft 436 kts 124°
2026-05-05 19:13 48.64433 3.98661 34815 ft 436 kts 124°
2026-05-05 19:14 48.61025 4.06250 34814 ft 436 kts 124°
2026-05-05 19:14 48.57609 4.13824 34826 ft 436 kts 125°
2026-05-05 19:15 48.54178 4.21400 34807 ft 437 kts 125°
2026-05-05 19:15 48.50764 4.28934 34804 ft 438 kts 125°
2026-05-05 19:16 48.47317 4.36519 34798 ft 438 kts 126°
2026-05-05 19:16 48.43858 4.44095 34803 ft 439 kts 126°
2026-05-05 19:17 48.40391 4.51672 34818 ft 439 kts 126°
2026-05-05 19:17 48.36916 4.59247 34821 ft 439 kts 126°
2026-05-05 19:18 48.33441 4.66805 34830 ft 440 kts 126°
2026-05-05 19:18 48.29954 4.74371 34812 ft 440 kts 127°
2026-05-05 19:19 48.26488 4.81873 34822 ft 441 kts 127°
2026-05-05 19:19 48.23047 4.89304 34826 ft 441 kts 127°
2026-05-05 19:20 48.19598 4.96915 34832 ft 442 kts 119°
2026-05-05 19:20 48.17749 5.04479 34835 ft 445 kts 110°
2026-05-05 19:21 48.14688 5.19156 34826 ft 446 kts 109°
2026-05-05 19:22 48.11882 5.32504 34838 ft 446 kts 110°
2026-05-05 19:22 48.10009 5.41302 34841 ft 447 kts 110°
2026-05-05 19:23 48.08121 5.50157 34838 ft 447 kts 110°
2026-05-05 19:23 48.06226 5.59034 34820 ft 449 kts 110°
2026-05-05 19:24 48.04314 5.67922 34829 ft 450 kts 110°
2026-05-05 19:24 48.02371 5.76887 34836 ft 451 kts 110°
2026-05-05 19:25 48.00447 5.85722 34843 ft 451 kts 110°
2026-05-05 19:25 47.98508 5.94639 34854 ft 451 kts 110°
2026-05-05 19:26 47.96564 6.03561 34849 ft 452 kts 111°
2026-05-05 19:26 47.95587 6.08005 34745 ft 451 kts 111°
2026-05-05 19:26 47.94606 6.12457 34204 ft 451 kts 111°
2026-05-05 19:27 47.93627 6.16901 33614 ft 451 kts 111°
2026-05-05 19:27 47.92649 6.21327 32968 ft 450 kts 111°
2026-05-05 19:27 47.91664 6.25766 32426 ft 447 kts 111°
2026-05-05 19:27 47.90691 6.30151 31986 ft 443 kts 111°
2026-05-05 19:28 47.89731 6.34480 31534 ft 438 kts 111°
2026-05-05 19:28 47.88774 6.38778 31032 ft 434 kts 111°
2026-05-05 19:28 47.87835 6.42966 30548 ft 430 kts 112°
2026-05-05 19:28 47.86865 6.47170 30097 ft 427 kts 112°
2026-05-05 19:29 47.85919 6.51336 29583 ft 423 kts 112°
2026-05-05 19:29 47.84993 6.55466 29039 ft 419 kts 111°
2026-05-05 19:29 47.84076 6.59568 28505 ft 416 kts 111°
2026-05-05 19:29 47.83168 6.63635 27973 ft 412 kts 111°
2026-05-05 19:30 47.82262 6.67671 27448 ft 409 kts 111°
2026-05-05 19:30 47.81361 6.71665 26936 ft 406 kts 112°
2026-05-05 19:30 47.80457 6.75640 26389 ft 405 kts 112°
2026-05-05 19:30 47.79858 6.78266 26022 ft 404 kts 112°
2026-05-05 19:31 47.78961 6.82207 25511 ft 402 kts 112°
2026-05-05 19:31 47.78065 6.86146 25038 ft 400 kts 112°
2026-05-05 19:31 47.77176 6.90055 24607 ft 397 kts 112°
2026-05-05 19:31 47.76289 6.93935 24203 ft 395 kts 112°
2026-05-05 19:32 47.75404 6.97782 23816 ft 393 kts 112°
2026-05-05 19:32 47.74520 7.01613 23400 ft 390 kts 112°
2026-05-05 19:32 47.73359 7.06654 22753 ft 387 kts 112°
2026-05-05 19:32 47.72773 7.09205 22424 ft 386 kts 112°
2026-05-05 19:33 47.71912 7.12947 21940 ft 383 kts 112°
2026-05-05 19:33 47.71046 7.16698 21444 ft 381 kts 112°
2026-05-05 19:33 47.70186 7.20410 20961 ft 379 kts 112°
2026-05-05 19:33 47.69342 7.24055 20500 ft 377 kts 112°
2026-05-05 19:34 47.68487 7.27731 20029 ft 375 kts 112°
2026-05-05 19:34 47.67638 7.31377 19853 ft 375 kts 112°
2026-05-05 19:34 47.66777 7.35061 19880 ft 376 kts 112°
2026-05-05 19:35 47.65124 7.42456 19882 ft 377 kts 111°
2026-05-05 19:35 47.64319 7.46096 19663 ft 374 kts 112°
2026-05-05 19:35 47.63471 7.49741 19192 ft 371 kts 112°
2026-05-05 19:35 47.62609 7.53335 18732 ft 369 kts 113°
2026-05-05 19:36 47.61740 7.56915 18245 ft 368 kts 113°
2026-05-05 19:36 47.60879 7.60474 17746 ft 366 kts 113°
2026-05-05 19:36 47.60025 7.64022 17247 ft 364 kts 112°
2026-05-05 19:36 47.59184 7.67546 16746 ft 362 kts 112°
2026-05-05 19:37 47.58349 7.71057 16266 ft 360 kts 112°
2026-05-05 19:37 47.57520 7.74551 15788 ft 358 kts 112°
2026-05-05 19:37 47.56698 7.78019 15313 ft 357 kts 112°
2026-05-05 19:37 47.55882 7.81481 14852 ft 355 kts 112°
2026-05-05 19:38 47.55084 7.84882 14399 ft 353 kts 112°
2026-05-05 19:38 47.54269 7.88349 13943 ft 352 kts 112°
2026-05-05 19:38 47.53473 7.91720 13490 ft 350 kts 113°
2026-05-05 19:38 47.52665 7.95126 13165 ft 342 kts 113°
2026-05-05 19:39 47.51956 7.98122 13045 ft 332 kts 114°
2026-05-05 19:39 47.51205 8.01296 12890 ft 321 kts 114°
2026-05-05 19:39 47.50477 8.04358 12898 ft 309 kts 114°
2026-05-05 19:39 47.49726 8.07289 12905 ft 306 kts 119°
2026-05-05 19:40 47.48560 8.09868 12916 ft 295 kts 141°
2026-05-05 19:40 47.46934 8.11567 12906 ft 284 kts 162°
2026-05-05 19:40 47.45057 8.12286 12900 ft 275 kts 182°
2026-05-05 19:40 47.43180 8.11979 12901 ft 268 kts 201°
2026-05-05 19:41 47.41550 8.10759 12911 ft 265 kts 219°
2026-05-05 19:41 47.40292 8.08762 12907 ft 265 kts 238°
2026-05-05 19:41 47.39577 8.06251 12919 ft 268 kts 253°
2026-05-05 19:41 47.39195 8.03575 12903 ft 269 kts 257°
2026-05-05 19:42 47.38902 8.00830 12911 ft 269 kts 259°
2026-05-05 19:42 47.38638 7.98108 12916 ft 269 kts 259°
2026-05-05 19:42 47.38372 7.95397 12910 ft 270 kts 259°
2026-05-05 19:42 47.38199 7.92620 12910 ft 272 kts 270°
2026-05-05 19:43 47.38594 7.89893 12898 ft 279 kts 288°
2026-05-05 19:43 47.39631 7.87423 12918 ft 288 kts 308°
2026-05-05 19:43 47.41245 7.85596 12911 ft 298 kts 329°
2026-05-05 19:43 47.43246 7.84747 12915 ft 308 kts 352°
2026-05-05 19:44 47.45387 7.85096 12902 ft 315 kts 16°
2026-05-05 19:44 47.47303 7.86690 12910 ft 320 kts 42°
2026-05-05 19:44 47.48654 7.89303 12904 ft 319 kts 68°
2026-05-05 19:44 47.49268 7.92385 12911 ft 317 kts 81°
2026-05-05 19:45 47.49674 7.95612 12914 ft 317 kts 83°
2026-05-05 19:45 47.50025 7.98832 12891 ft 317 kts 84°
2026-05-05 19:45 47.50360 8.02081 12907 ft 317 kts 84°
2026-05-05 19:45 47.50626 8.05292 12909 ft 315 kts 94°
2026-05-05 19:46 47.50251 8.08430 12894 ft 305 kts 117°
2026-05-05 19:46 47.49181 8.11077 12900 ft 295 kts 138°
2026-05-05 19:46 47.47631 8.12936 12908 ft 285 kts 158°
2026-05-05 19:46 47.45787 8.13883 12911 ft 277 kts 176°
2026-05-05 19:47 47.43895 8.13874 12912 ft 270 kts 194°
2026-05-05 19:47 47.42154 8.12992 12906 ft 265 kts 211°
2026-05-05 19:47 47.40688 8.11355 12905 ft 264 kts 227°
2026-05-05 19:47 47.39638 8.09123 12923 ft 265 kts 244°
2026-05-05 19:48 47.39073 8.06544 12925 ft 268 kts 255°
2026-05-05 19:48 47.38707 8.03845 12901 ft 268 kts 257°
2026-05-05 19:48 47.38409 8.01110 12919 ft 269 kts 258°
2026-05-05 19:48 47.38133 7.98377 12916 ft 269 kts 259°
2026-05-05 19:49 47.37861 7.95664 12913 ft 269 kts 258°
2026-05-05 19:49 47.37679 7.93853 12907 ft 269 kts 261°
2026-05-05 19:49 47.37884 7.90145 12904 ft 276 kts 283°
2026-05-05 19:49 47.38745 7.87570 12912 ft 284 kts 302°
2026-05-05 19:50 47.40148 7.85517 12689 ft 291 kts 321°
2026-05-05 19:50 47.42036 7.84278 12333 ft 300 kts 343°
2026-05-05 19:50 47.44115 7.84118 11974 ft 306 kts
2026-05-05 19:50 47.46156 7.85094 11622 ft 311 kts 28°
2026-05-05 19:51 47.47813 7.87094 11263 ft 311 kts 52°
2026-05-05 19:51 47.48988 7.89752 11253 ft 316 kts 56°
2026-05-05 19:51 47.50520 7.92292 11277 ft 343 kts 46°
2026-05-05 19:51 47.51902 7.95175 11273 ft 351 kts 68°
2026-05-05 19:52 47.52489 7.98652 11263 ft 347 kts 91°
2026-05-05 19:52 47.52183 8.02144 11163 ft 340 kts 110°
2026-05-05 19:52 47.51467 8.05440 10894 ft 333 kts 114°
2026-05-05 19:52 47.50709 8.08720 10902 ft 337 kts 114°
2026-05-05 19:53 47.49947 8.11967 10910 ft 338 kts 114°
2026-05-05 19:53 47.49171 8.15264 10909 ft 338 kts 114°
2026-05-05 19:53 47.48397 8.18560 10908 ft 338 kts 114°
2026-05-05 19:53 47.47624 8.21848 10911 ft 338 kts 114°
2026-05-05 19:54 47.46859 8.25091 10908 ft 338 kts 114°
2026-05-05 19:54 47.46018 8.28645 10905 ft 338 kts 114°
2026-05-05 19:54 47.45301 8.31674 10902 ft 338 kts 114°
2026-05-05 19:54 47.44532 8.34923 10902 ft 338 kts 113°
2026-05-05 19:55 47.43681 8.38156 10902 ft 332 kts 122°
2026-05-05 19:55 47.42264 8.40787 10911 ft 323 kts 141°
2026-05-05 19:55 47.40601 8.42941 10915 ft 322 kts 143°
2026-05-05 19:55 47.38880 8.45098 10920 ft 322 kts 143°
2026-05-05 19:56 47.37187 8.47215 10920 ft 321 kts 143°
2026-05-05 19:56 47.35497 8.49418 10916 ft 323 kts 136°
2026-05-05 19:56 47.34306 8.52244 10785 ft 329 kts 114°
2026-05-05 19:56 47.33828 8.55521 10346 ft 332 kts 100°
2026-05-05 19:57 47.33582 8.58855 10196 ft 321 kts 99°
2026-05-05 19:57 47.33433 8.61043 10097 ft 314 kts 99°
2026-05-05 19:57 47.33159 8.65197 9881 ft 303 kts 98°
2026-05-05 19:57 47.32957 8.68266 9550 ft 299 kts 99°
2026-05-05 19:58 47.32757 8.71311 9164 ft 298 kts 99°
2026-05-05 19:58 47.32562 8.74325 8971 ft 290 kts 98°
2026-05-05 19:58 47.32674 8.77235 8842 ft 283 kts 78°
2026-05-05 19:58 47.33214 8.79977 8707 ft 274 kts 74°
2026-05-05 19:59 47.33789 8.82600 8565 ft 265 kts 74°
2026-05-05 19:59 47.34358 8.85167 8258 ft 261 kts 73°
2026-05-05 19:59 47.34915 8.87701 7754 ft 259 kts 73°
2026-05-05 19:59 47.35635 8.90123 7131 ft 257 kts 58°
2026-05-05 20:00 47.36634 8.92306 6566 ft 254 kts 54°
2026-05-05 20:00 47.37770 8.94188 6166 ft 240 kts 31°
2026-05-05 20:00 47.39280 8.94983 5671 ft 228 kts 359°
2026-05-05 20:00 47.40812 8.94676 5202 ft 220 kts 334°
2026-05-05 20:01 47.42068 8.93524 5068 ft 209 kts 313°
2026-05-05 20:01 47.42910 8.91830 4995 ft 203 kts 292°
2026-05-05 20:01 47.43273 8.89844 5003 ft 200 kts 275°
2026-05-05 20:01 47.43422 8.87797 5003 ft 200 kts 275°
2026-05-05 20:02 47.43574 8.85753 5024 ft 200 kts 275°
2026-05-05 20:02 47.43724 8.83717 5018 ft 199 kts 275°
2026-05-05 20:02 47.43872 8.81708 4953 ft 189 kts 275°
2026-05-05 20:02 47.44008 8.79872 4760 ft 168 kts 275°
2026-05-05 20:03 47.44128 8.78238 4554 ft 157 kts 274°
2026-05-05 20:03 47.44243 8.76661 4334 ft 153 kts 273°
2026-05-05 20:03 47.44356 8.75108 4116 ft 151 kts 272°
2026-05-05 20:03 47.44467 8.73594 3939 ft 145 kts 272°
2026-05-05 20:04 47.44575 8.72109 3692 ft 145 kts 271°
2026-05-05 20:04 47.44681 8.70637 3484 ft 143 kts 271°
2026-05-05 20:04 47.44778 8.69197 3290 ft 142 kts 271°
2026-05-05 20:04 47.44877 8.67779 3059 ft 142 kts 272°
2026-05-05 20:05 47.44985 8.66325 2830 ft 141 kts 272°
2026-05-05 20:05 47.45101 8.64869 2627 ft 143 kts 272°
2026-05-05 20:05 47.45210 8.63374 2424 ft 143 kts 272°
2026-05-05 20:05 47.45315 8.61923 2187 ft 143 kts 272°
2026-05-05 20:06 47.45417 8.60456 1975 ft 144 kts 272°
2026-05-05 20:06 47.45481 8.59479 1822 ft 144 kts 273°
2026-05-05 20:06 47.45591 8.58001 1611 ft 145 kts 274°
2026-05-05 20:06 47.45701 8.56498 1409 ft 143 kts 273°
2026-05-05 20:07 47.45781 8.55322 1401 ft 78 kts 276°
2026-05-05 20:07 47.45813 8.54875 1395 ft 21 kts 277°
2026-05-05 20:07 47.45874 8.54770 1400 ft 4 kts 337°
2026-05-05 20:07 47.45914 8.54783 1397 ft 8 kts 46°
2026-05-05 20:08 47.45922 8.54840 1401 ft 11 kts 89°
2026-05-05 20:08 47.45919 8.54888 1397 ft 1 kts 98°
2026-05-05 20:08 47.45917 8.54915 1394 ft 5 kts 97°
2026-05-05 20:08 47.45912 8.54982 1393 ft 8 kts 96°
2026-05-05 20:09 47.45906 8.55065 1403 ft 8 kts 96°
2026-05-05 20:09 47.45902 8.55128 1398 ft 3 kts 95°
2026-05-05 20:09 47.45900 8.55160 1394 ft 4 kts 95°
2026-05-05 20:09 47.45897 8.55205 1394 ft 6 kts 95°